Simultaneous Nadir Overpasses (SNOs) Predictions

Prediction of SNOs between LANDSAT-8 and METOP-B Satellite Orbit:

Table of predicted SNOs for the next 14.0 days since TLE Epoch: 10/15/2017
Index Date (LANDSAT-8) Time (LANDSAT-8) Lat,Lon (LANDSAT-8) SZA (LANDSAT-8 ) Date (METOP-B) Time (METOP-B) Lat,Lon (METOP-B) SZA (METOP-B ) Distance(km) Time Diff (sec)
1 10/18/2017 03:05:58 -81.13, -6.47 86.84 10/18/2017 03:05:34 -81.13, -6.45 86.85 0.34 24
2 10/18/2017 03:55:23 81.15, 161.56 93.23 10/18/2017 03:56:13 81.15, 161.51 93.25 1.03 50
3 10/20/2017 22:40:13 -81.12, 59.79 85.85 10/20/2017 22:39:56 -81.12, 59.82 85.85 0.78 17
4 10/20/2017 23:29:38 81.14,-132.21 94.22 10/20/2017 23:30:35 81.14,-132.21 94.25 0.38 57
5 10/23/2017 18:14:28 -81.12, 126.37 84.83 10/23/2017 18:14:18 -81.13, 126.44 84.83 1.26 10
6 10/23/2017 19:03:53 81.15, -65.65 95.24 10/23/2017 19:04:57 81.15, -65.58 95.28 1.28 64
7 10/26/2017 13:48:43 -81.13,-167.10 83.85 10/26/2017 13:48:40 -81.13,-166.97 83.83 2.23 3
8 10/26/2017 14:38:08 81.15, 0.87 96.22 10/26/2017 14:39:19 81.16, 1.03 96.27 2.78 71
9 10/29/2017 08:33:31 81.11, 91.31 97.03 10/29/2017 08:32:23 81.10, 91.21 96.99 1.65 68




NCC Satellite Simultaneous Nadir Overpasses (SNOs) Prediction Service
